Location: Budapest
(47.4979°N, 19.0402°E)
Time: 09:20:09
(UTC+02:00)

OTV 5 (USA 277) - Pass Details

Date: 11 October 2017
Orbit: 404 x 417 km, 43.0° (Epoch: 07 September)

Event Time Altitude Azimuth Distance (km) Brightness Sun altitude
Rises 18:42:38 0° 210° (SSW) 2,345 ? -7.4°
Reaches altitude 10° 18:45:35 10° 181° (S) 1,486 ? -7.9°
Maximum altitude 18:47:14 13° 152° (SSE) 1,314 ? -8.2°
Drops below altitude 10° 18:48:53 10° 122° (ESE) 1,489 ? -8.5°
Enters shadow 18:49:15 - 117° (ESE) 1,568 ? -8.5°
